SCP
-0 -0 -0 -0 -0 0 0 -0 -0 0 0 -0 0 0 0 0 0 0 0 0 -1 -0 0 0 1 0 0 0 0 0 0 0 0 0 0 0 0 0 0 0 0 0 0 0 -0 -0 0 0 0
0 -0 -0 -0 -0 -0 -0 -0 -0 -0 0 -0 0 -0 -0 -0 0 0 0 0 -0 0 0 0 0 0 0 0 0 0 0 0 0 0 0 0 0 0 0 0 0 0 0 0 0 0 0 0 0
-0 -0 -0 -0 0 -0 -0 -0 -0 0 0 -0 0 0 0 -0 0 0 0 0 -0 0 0 0 0 0 0 0 0 0 0 0 0 0 0 0 0 0 0 0 0 0 0 0 0 0 0 0 0
-0 -0 0 -0 -0 -0 -0 0 -0 0 0 0 -0 0 -0 -0 0 0 0 0 -0 -0 -0 -0 0 0 0 0 0 0 0 0 0 0 0 0 0 0 0 0 0 0 0 0 0 0 0 0 0
-0 -0 0 -0 -0 -0 0 0 0 -0 0 0 0 0 -0 0 0 0 0 0 -0 -0 -0 -0 -0 -0 -0 -0 0 0 0 0 0 0 0 0 0 0 0 0 0 0 0 0 0 0 0 0 0
-0 -0 0 -0 -0 -0 0 0 0 -0 -0 0 0 0 0 -0 0 0 0 0 0 -0 -0 -0 -0 -0 -0 -0 0 0 0 0 0 0 0 0 0 0 0 0 0 0 0 0 0 0 0 0 0
-0 -0 -0 -0 0 -0 0 0 -0 -0 -0 -0 0 0 0 -0 1 0 0 0 0 -1 -1 -0 -0 -0 -0 -0 -0 0 0 0 0 0 0 0 0 0 0 0 0 0 0 0 0 0 0 0 0
-0 -0 -0 -0 -0 0 0 0 0 0 -0 -0 0 0 -0 -0 1 0 0 0 0 -0 -1 -0 -0 -0 -0 -0 -0 -0 0 0 0 -0 -0 0 0 -0 0 0 0 0 0 0 0 0 0 0 0
0 -0 -0 -0 -0 0 0 0 -0 0 -0 0 0 0 0 0 0 0 0 0 0 0 -0 -0 -0 -0 -0 -0 -0 -0 -0 -0 -0 -0 -0 -0 0 0 -0 0 -0 -0 -0 0 0 0 0 0 0
0 -0 -0 -0 0 0 0 0 -0 -0 -0 -0 -0 0 0 0 0 0 0 0 0 0 0 -0 -0 -0 -0 -0 -0 -0 -0 -0 -0 -0 -0 0 0 0 -0 -0 -0 -0 -0 0 0 0 0 0 0
0 -0 -0 -0 -0 0 0 0 -0 0 -0 -0 -0 0 0 0 0 0 0 -0 0 0 0 0 -0 -0 -0 0 -0 -0 -0 -0 -0 -0 -0 -0 0 0 0 0 0 1 0 0 0 0 0 0 0
0 -0 0 0 -0 -0 0 -0 -0 -0 -0 -0 0 0 0 0 0 0 0 0 0 0 0 0 -0 -0 -0 0 -0 -0 -0 -0 -0 -0 -0 -0 0 -0 0 0 0 0 1 0 0 0 0 0 0
-0 -0 -0 -0 -0 -0 -0 0 0 -0 0 -0 0 0 -0 0 0 0 -0 0 0 0 0 0 0 0 0 -1 0 0 -0 -0 -0 -0 -0 -0 0 0 0 0 0 1 1 1 0 0 0 2 3
0 0 0 -0 -0 -0 -0 -0 -0 -0 0 0 0 0 -0 0 0 0 0 0 0 0 0 0 0 0 0 -0 -0 0 0 0 0 1 0 0 1 1 1 1 1 1 0 0 2 6 5 2 1
-0 -0 -0 -0 0 0 -0 0 -0 -0 0 0 -0 0 0 0 0 0 0 0 0 0 0 1 0 1 1 0 0 0 1 0 0 1 1 1 2 2 1 1 2 2 2 1 5 2 2 3 1
-0 0 -0 0 0 -0 -0 -0 -0 0 0 -0 -0 0 0 0 0 0 0 0 0 0 0 1 0 0 1 1 1 0 0 0 1 0 1 2 2 3 3 3 1 1 6 8 4 2 1 1 1
0 -0 -0 0 0 -0 0 0 0 0 0 0 0 -0 -0 -0 0 0 0 0 1 1 2 1 2 1 1 2 1 1 1 1 1 1 1 3 2 3 2 2 3 4 4 3 2 2 1 1 0
-0 -0 0 -0 0 0 0 0 0 0 -0 -0 -0 -0 -0 0 0 0 0 -0 0 1 2 2 3 2 4 3 2 2 1 1 2 1 3 1 0 0 0 2 3 5 2 2 2 1 0 0 0
-0 -0 0 0 0 0 -0 0 -0 -0 -0 0 0 -0 0 0 0 0 0 0 0 0 2 5 3 3 3 5 3 3 3 3 2 4 3 0 0 0 0 0 4 7 5 3 1 0 0 0 0
0 0 -0 0 0 0 -0 -0 -0 -0 0 -0 -0 -0 -0 -0 -0 -0 0 0 0 0 2 4 5 6 5 4 7 6 4 2 8 3 1 0 0 0 0 1 3 7 7 4 2 0 0 0 0
-0 0 -0 0 0 -0 -0 0 -0 -0 -0 -0 -0 -0 -0 -0 -0 -0 0 -0 0 0 1 1 3 2 4 5 6 8 10 10 10 1 0 0 -0 0 0 1 1 2 5 4 0 0 0 0 0
-0 0 0 0 -0 -0 0 0 -0 0 0 0 -0 -0 -0 -0 -0 -0 -0 0 -0 -0 0 0 0 0 -0 2 3 2 6 5 5 3 2 0 0 1 2 3 5 7 6 4 1 1 0 0 0
-0 -0 -0 -0 -0 0 -0 0 -0 -0 -0 0 0 0 0 0 -0 0 0 0 1 -0 0 0 1 -0 1 2 1 2 1 3 1 2 2 3 2 2 4 5 6 4 4 1 0 0 0 0 0
-0 -0 -0 -0 -0 0 -0 0 -0 -0 0 0 0 0 0 0 0 0 1 1 0 1 2 0 0 1 2 1 2 1 -0 0 2 2 3 2 3 6 7 6 5 3 3 1 0 0 0 0 0
0 0 0 -0 -0 0 -0 0 0 0 0 0 0 0 0 0 0 0 0 1 1 1 1 2 2 2 3 2 2 2 2 2 3 2 2 1 1 2 2 2 1 1 1 0 0 0 0 0 0
-0 -0 0 -0 -0 -0 -0 -0 0 0 0 0 0 0 0 0 0 0 0 0 0 1 1 1 2 3 3 2 2 3 3 2 2 1 1 1 1 0 0 0 0 0 0 0 0 0 0 0 0
0 -0 -0 -0 -0 -0 0 0 0 0 0 0 0 0 0 0 0 0 0 0 0 0 0 1 1 2 2 1 2 1 1 1 1 2 1 0 0 0 0 0 0 0 0 0 0 0 0 0 0
0 -0 0 0 0 -0 -0 0 0 0 0 0 0 0 0 0 0 0 0 0 0 0 0 1 1 2 1 1 1 1 1 1 1 1 0 0 0 0 0 0 0 0 0 0 0 0 0 0 0
0 0 0 0 0 0 0 0 0 0 0 0 0 0 0 0 0 0 0 0 0 0 0 0 0 1 1 1 0 1 0 1 1 0 0 0 0 0 0 0 0 0 0 0 0 0 0 0 0
0 0 0 0 0 0 0 0 0 0 0 0 0 0 0 0 0 0 0 0 0 0 0 0 0 0 -0 -0 -0 0 0 1 1 1 0 0 0 0 0 0 0 0 0 0 0 0 0 0 0
Wind_Speed_500mb
31 33 35 25 4 8 11 25 31 17 17 20 22 19 22 22 27 12 25 20 30 28 27 43 45 44 41 40 37 33 28 25 23 19 17 17 17 19 21 20 20 19 19 18 17 15 13 11 12
30 32 34 43 17 10 11 36 43 22 16 12 9 38 22 34 31 24 31 22 33 29 33 45 46 43 39 37 35 32 28 25 21 18 16 16 17 18 19 18 18 19 19 19 19 18 17 15 15
33 34 37 19 12 20 24 26 17 20 5 14 23 20 37 38 25 17 21 33 34 26 41 45 45 41 38 35 32 30 27 24 21 19 18 18 17 17 17 17 18 18 19 20 22 21 20 19 18
22 37 30 25 13 32 40 13 13 8 19 16 45 35 39 21 9 11 28 34 34 26 34 43 42 39 36 32 30 28 26 24 23 21 20 18 18 17 16 16 17 18 20 22 24 25 23 23 23
27 33 24 33 33 37 9 18 18 24 20 28 13 21 44 18 22 25 27 32 26 32 32 34 38 37 33 30 28 26 25 24 23 20 19 19 18 17 16 17 19 21 24 26 27 27 27 27 26
29 37 28 28 31 36 7 17 17 21 31 25 22 31 13 21 6 19 22 23 26 38 28 23 37 35 32 29 27 26 24 23 22 20 19 20 20 19 18 19 20 23 26 28 30 32 32 32 31
27 21 33 36 18 44 13 13 14 15 17 11 41 27 4 24 14 18 19 17 30 30 26 20 38 37 33 30 28 26 24 23 21 20 21 22 22 22 23 22 22 23 27 31 34 35 36 36 36
31 23 38 35 28 8 12 6 10 23 28 26 9 16 11 27 24 20 21 20 27 31 29 15 39 38 35 32 30 28 27 25 23 23 25 26 27 28 28 27 25 25 29 32 36 38 40 41 40
20 16 23 33 30 16 11 11 26 12 24 16 9 36 37 29 27 26 18 19 23 26 31 18 36 37 36 33 31 29 29 30 31 31 30 31 32 31 33 32 31 29 30 34 38 42 44 44 45
16 20 29 26 25 29 25 18 23 22 18 28 44 27 29 27 22 24 22 26 25 28 34 30 37 35 32 32 28 27 31 36 37 36 36 34 33 32 27 25 27 29 31 36 42 45 47 48 49
20 21 34 35 31 31 27 25 28 17 25 36 32 21 27 23 14 22 35 39 29 28 34 39 35 43 35 33 47 35 36 41 43 40 36 34 32 24 27 35 33 38 42 47 47 47 51 50 49
15 27 17 26 28 15 20 32 26 25 31 30 30 23 13 25 21 13 10 27 27 31 35 37 41 43 41 36 47 32 25 21 25 25 29 31 29 28 34 32 41 37 42 30 31 41 41 34 27
20 23 12 21 17 23 31 28 24 37 28 29 27 30 33 23 18 14 11 9 27 33 36 40 45 47 49 46 38 35 30 27 26 29 31 31 31 33 32 34 36 35 36 42 35 36 40 56 55
28 23 27 25 19 22 26 28 36 25 22 25 19 15 22 24 25 18 15 13 24 33 39 38 41 48 51 59 44 32 40 30 32 30 33 33 31 27 31 35 38 39 41 40 44 50 53 43 47
22 24 34 22 10 13 13 27 27 11 19 18 15 16 17 16 11 13 22 22 24 32 36 41 41 48 49 48 61 45 34 41 37 34 31 32 31 29 37 47 48 45 46 46 62 61 54 61 61
28 33 31 24 4 12 16 9 16 18 16 22 18 21 2 1 13 16 15 21 24 30 38 42 42 46 46 48 46 51 55 40 33 33 31 31 37 43 46 50 54 54 55 58 70 70 73 73 69
29 23 9 14 18 9 17 20 17 16 17 17 9 21 23 16 12 23 9 15 25 29 33 45 43 39 44 41 47 40 37 40 45 41 40 43 38 39 46 55 59 57 63 70 68 82 76 80 79
29 22 8 8 15 14 28 18 13 18 27 47 50 49 43 38 50 42 25 6 15 28 39 39 49 54 39 47 39 41 42 48 45 44 55 53 54 23 53 65 67 67 74 76 76 77 82 83 90
20 14 15 10 7 7 22 12 21 32 46 40 36 33 24 40 42 47 39 24 18 19 25 47 44 45 52 34 45 47 53 45 44 47 50 59 49 73 67 59 63 74 76 83 84 85 95 83 81
13 18 22 18 3 11 24 41 50 49 21 42 45 42 46 53 35 42 44 35 25 15 14 9 39 36 42 52 48 36 33 34 51 54 55 34 52 82 88 55 63 70 70 86 99 98 95 82 68
19 7 16 21 24 23 7 35 53 57 35 42 41 47 47 46 54 46 47 53 39 24 11 11 15 32 40 37 35 40 47 47 45 41 30 40 73 85 65 58 58 78 82 86 91 100 98 82 71
14 16 17 23 24 24 25 9 21 29 30 33 39 44 46 46 46 51 49 48 50 51 12 2 9 12 24 36 43 38 44 50 53 46 50 63 56 53 45 45 52 60 65 74 72 75 85 77 56
25 11 22 21 27 24 23 19 16 45 21 28 37 37 41 46 47 49 49 47 51 49 50 47 22 20 25 10 29 31 42 44 35 39 37 26 37 41 40 42 47 56 60 62 64 73 74 67 65
16 21 31 30 22 10 8 16 14 15 17 23 32 34 36 41 47 46 49 57 48 48 51 47 46 37 22 8 14 20 25 28 27 31 25 26 27 25 29 33 45 45 53 56 56 73 69 56 62
12 19 19 12 7 8 30 16 18 18 21 25 27 33 35 37 42 47 49 50 54 47 38 39 26 29 20 11 6 5 8 11 13 28 30 38 35 35 39 40 36 35 38 35 50 45 39 25 8
18 13 13 24 20 18 30 22 21 29 29 32 33 35 36 39 41 42 45 48 49 52 48 39 37 33 33 23 24 25 24 24 16 29 33 22 35 36 34 27 23 21 25 31 34 32 10 15 10
19 17 22 19 28 19 10 11 9 23 21 25 28 33 35 36 37 39 39 41 46 49 56 51 36 28 24 30 31 36 40 39 37 25 26 31 34 35 32 23 12 6 4 7 12 4 1 2 2
5 13 16 9 14 25 29 17 10 17 17 21 28 30 28 31 33 34 37 42 41 42 45 47 49 48 43 35 36 39 38 35 23 29 31 34 32 26 17 13 14 12 11 6 7 8 5 8 8
23 21 18 14 14 19 18 13 16 14 17 18 25 22 23 30 31 31 32 35 38 40 42 46 46 48 52 50 42 34 34 27 32 33 39 31 22 14 10 9 8 8 5 6 4 3 6 11 15
17 10 18 8 22 20 20 20 21 17 21 16 22 26 26 24 22 29 33 35 36 40 44 45 48 50 52 60 49 44 35 34 41 36 26 24 21 13 12 14 16 15 15 17 18 16 11 12 16
Wind_Direction_500mb
312 316 327 290 223 98 16 295 314 74 121 318 26 55 28 51 40 65 142 139 183 184 172 167 164 162 163 164 166 167 167 169 164 159 156 156 158 161 167 169 174 180 187 197 205 208 213 215 212
307 302 286 267 261 237 170 233 267 49 45 327 13 71 45 64 46 106 137 143 183 185 175 169 166 165 164 165 169 172 175 176 175 174 173 175 176 177 184 190 191 196 200 207 214 220 221 224 221
296 299 281 252 262 241 254 225 6 103 112 283 83 98 37 318 48 94 123 137 157 159 169 168 165 167 167 169 171 177 180 182 184 189 193 191 191 192 194 198 203 206 210 215 220 224 227 226 227
291 296 237 261 201 219 237 37 317 25 67 59 35 82 127 289 68 123 134 143 133 138 158 162 166 169 171 171 172 178 182 186 191 196 200 202 202 203 203 208 216 219 223 225 225 227 229 230 233
263 270 267 257 263 244 24 47 330 341 67 76 78 55 353 21 94 109 127 145 141 145 176 171 169 171 172 172 173 179 185 190 197 204 208 211 210 213 217 224 228 229 231 232 231 232 233 235 239
269 247 276 283 43 299 75 55 311 358 110 65 87 79 55 294 57 109 127 142 148 151 180 184 175 175 176 177 179 184 189 196 204 211 217 221 221 225 230 238 242 240 241 239 236 235 236 241 247
258 266 256 278 126 279 91 46 17 351 346 141 141 139 216 244 146 127 131 132 145 159 182 191 184 181 183 184 188 191 196 203 210 218 225 228 229 234 238 246 251 250 246 242 239 240 242 247 253
253 282 288 285 284 36 66 287 335 21 331 320 192 123 200 145 137 137 129 135 151 157 171 195 190 188 190 193 196 199 204 210 216 222 228 231 236 237 242 246 253 257 251 248 245 246 248 252 258
270 269 268 264 272 260 88 34 347 345 312 324 286 100 114 141 141 143 129 142 154 164 173 178 182 194 197 203 204 208 213 217 221 224 229 231 236 241 245 248 252 253 256 252 251 251 253 256 258
226 245 254 283 353 343 2 11 329 322 325 310 78 95 125 144 149 159 164 163 166 176 181 183 176 194 192 199 219 216 226 228 228 230 233 235 239 245 257 273 266 269 272 264 256 254 255 256 258
248 250 298 328 358 330 313 311 280 340 306 332 354 122 157 152 157 230 198 156 158 178 186 189 182 195 192 197 223 235 254 240 235 235 239 244 243 242 233 251 261 268 280 274 265 260 257 260 264
270 267 294 302 305 278 268 269 304 302 291 309 296 297 218 164 176 254 267 116 141 173 188 191 190 194 201 196 217 236 243 254 259 262 254 239 253 234 249 250 259 275 276 289 289 279 265 256 250
242 276 316 289 267 265 269 283 288 272 290 286 323 300 287 265 177 216 297 143 156 174 188 194 199 199 203 200 204 205 216 230 238 243 255 265 246 241 239 251 251 260 278 269 280 275 271 258 247
317 312 295 276 285 267 251 267 260 276 337 316 313 332 316 303 197 204 181 208 173 182 190 195 199 209 205 211 202 207 218 222 224 227 240 257 269 262 257 259 259 259 250 250 256 244 239 246 253
285 280 271 226 227 291 325 257 239 249 332 332 296 353 2 300 297 150 195 200 190 193 196 192 198 216 213 216 212 204 204 221 218 230 227 243 251 262 260 244 242 247 253 249 252 252 251 253 259
251 253 255 134 270 148 268 330 107 38 343 332 356 302 69 212 260 195 176 195 207 199 202 202 201 218 226 216 226 218 213 209 226 220 226 237 244 255 262 259 253 242 239 247 245 246 245 248 257
234 266 111 137 120 308 275 316 54 49 339 281 288 340 356 4 204 228 121 222 215 213 209 210 207 210 229 229 222 230 219 226 216 217 218 221 217 224 236 260 266 251 249 252 253 252 254 257 260
346 360 110 280 104 26 302 308 30 33 32 42 33 17 5 2 33 47 144 284 245 227 220 223 211 208 223 235 238 223 237 225 229 223 218 222 216 290 282 252 253 256 254 254 258 259 267 270 264
315 322 284 266 16 325 289 314 53 37 65 50 45 32 24 52 36 20 2 324 261 244 241 225 219 218 212 218 234 239 231 238 242 236 237 235 240 296 302 252 248 254 256 259 261 261 268 283 268
282 275 13 315 131 251 281 31 24 78 318 62 54 63 33 37 75 49 24 28 26 320 269 243 223 221 227 230 224 235 248 247 236 235 238 245 259 290 289 270 244 253 264 264 267 270 272 265 256
242 8 353 305 299 257 216 44 357 308 76 68 51 69 64 44 36 43 38 28 38 39 24 286 259 247 247 245 244 238 248 248 246 260 265 281 264 276 265 266 259 260 270 271 272 270 271 261 248
22 15 309 303 291 284 192 127 194 284 83 74 55 42 58 59 40 34 38 34 28 30 33 238 245 255 270 261 245 233 246 248 251 256 279 282 260 283 287 288 275 276 271 274 277 276 266 252 240
308 355 298 285 278 294 147 112 312 328 85 73 63 45 42 52 48 31 32 35 36 31 20 26 9 265 240 265 254 250 255 250 310 320 288 298 310 292 284 274 275 276 276 279 277 272 263 256 235
301 283 274 264 254 239 132 140 213 223 67 76 71 53 40 44 47 34 25 36 32 27 33 30 20 24 27 330 325 306 277 283 299 296 306 288 278 305 285 273 287 278 280 283 276 283 254 238 242
239 318 318 250 327 89 243 305 122 121 81 79 65 55 48 43 43 37 30 24 22 21 18 31 52 45 49 64 22 345 304 279 328 306 284 285 294 278 274 284 282 276 279 274 267 248 233 259 2
313 318 11 332 335 336 218 20 105 83 65 70 56 51 38 43 41 42 32 30 24 20 20 24 41 49 39 10 3 343 333 324 313 298 313 321 306 315 308 303 286 279 266 276 264 277 247 281 260
357 14 336 310 292 269 101 28 263 96 58 40 55 47 33 42 39 34 40 32 28 27 24 25 18 18 2 351 351 346 339 329 335 335 332 327 330 333 328 325 338 17 73 123 144 308 8 52 304
349 311 343 329 330 336 330 121 197 46 29 23 37 33 31 28 34 34 35 33 27 23 19 25 22 19 11 1 355 355 344 341 326 324 331 339 345 348 4 43 40 63 77 64 99 91 28 4 328
345 339 357 349 313 317 337 21 93 71 64 11 16 18 35 22 20 28 28 28 22 17 17 16 13 4 9 4 359 355 345 330 319 333 333 342 346 2 14 28 44 63 59 71 72 51 339 335 323
323 9 37 357 330 336 317 306 71 66 70 43 18 19 17 7 20 13 15 13 10 9 8 5 0 4 358 1 356 350 337 334 325 323 322 337 343 357 27 48 48 45 25 15 22 17 344 306 301
Wind_Speed_850mb
31 33 35 25 4 8 11 25 31 17 17 20 22 19 22 22 27 12 25 20 30 28 27 43 45 44 41 40 37 33 28 25 23 19 17 17 17 19 21 20 20 19 19 18 17 15 13 11 12
30 32 34 43 17 10 11 36 43 22 16 12 9 38 22 34 31 24 31 22 33 29 33 45 46 43 39 37 35 32 28 25 21 18 16 16 17 18 19 18 18 19 19 19 19 18 17 15 15
33 34 37 19 12 20 24 26 17 20 5 14 23 20 37 38 25 17 21 33 34 26 41 45 45 41 38 35 32 30 27 24 21 19 18 18 17 17 17 17 18 18 19 20 22 21 20 19 18
22 37 30 25 13 32 40 13 13 8 19 16 45 35 39 21 9 11 28 34 34 26 34 43 42 39 36 32 30 28 26 24 23 21 20 18 18 17 16 16 17 18 20 22 24 25 23 23 23
27 33 24 33 33 37 9 18 18 24 20 28 13 21 44 18 22 25 27 32 26 32 32 34 38 37 33 30 28 26 25 24 23 20 19 19 18 17 16 17 19 21 24 26 27 27 27 27 26
29 37 28 28 31 36 7 17 17 21 31 25 22 31 13 21 6 19 22 23 26 38 28 23 37 35 32 29 27 26 24 23 22 20 19 20 20 19 18 19 20 23 26 28 30 32 32 32 31
27 21 33 36 18 44 13 13 14 15 17 11 41 27 4 24 14 18 19 17 30 30 26 20 38 37 33 30 28 26 24 23 21 20 21 22 22 22 23 22 22 23 27 31 34 35 36 36 36
31 23 38 35 28 8 12 6 10 23 28 26 9 16 11 27 24 20 21 20 27 31 29 15 39 38 35 32 30 28 27 25 23 23 25 26 27 28 28 27 25 25 29 32 36 38 40 41 40
20 16 23 33 30 16 11 11 26 12 24 16 9 36 37 29 27 26 18 19 23 26 31 18 36 37 36 33 31 29 29 30 31 31 30 31 32 31 33 32 31 29 30 34 38 42 44 44 45
16 20 29 26 25 29 25 18 23 22 18 28 44 27 29 27 22 24 22 26 25 28 34 30 37 35 32 32 28 27 31 36 37 36 36 34 33 32 27 25 27 29 31 36 42 45 47 48 49
20 21 34 35 31 31 27 25 28 17 25 36 32 21 27 23 14 22 35 39 29 28 34 39 35 43 35 33 47 35 36 41 43 40 36 34 32 24 27 35 33 38 42 47 47 47 51 50 49
15 27 17 26 28 15 20 32 26 25 31 30 30 23 13 25 21 13 10 27 27 31 35 37 41 43 41 36 47 32 25 21 25 25 29 31 29 28 34 32 41 37 42 30 31 41 41 34 27
20 23 12 21 17 23 31 28 24 37 28 29 27 30 33 23 18 14 11 9 27 33 36 40 45 47 49 46 38 35 30 27 26 29 31 31 31 33 32 34 36 35 36 42 35 36 40 56 55
28 23 27 25 19 22 26 28 36 25 22 25 19 15 22 24 25 18 15 13 24 33 39 38 41 48 51 59 44 32 40 30 32 30 33 33 31 27 31 35 38 39 41 40 44 50 53 43 47
22 24 34 22 10 13 13 27 27 11 19 18 15 16 17 16 11 13 22 22 24 32 36 41 41 48 49 48 61 45 34 41 37 34 31 32 31 29 37 47 48 45 46 46 62 61 54 61 61
28 33 31 24 4 12 16 9 16 18 16 22 18 21 2 1 13 16 15 21 24 30 38 42 42 46 46 48 46 51 55 40 33 33 31 31 37 43 46 50 54 54 55 58 70 70 73 73 69
29 23 9 14 18 9 17 20 17 16 17 17 9 21 23 16 12 23 9 15 25 29 33 45 43 39 44 41 47 40 37 40 45 41 40 43 38 39 46 55 59 57 63 70 68 82 76 80 79
29 22 8 8 15 14 28 18 13 18 27 47 50 49 43 38 50 42 25 6 15 28 39 39 49 54 39 47 39 41 42 48 45 44 55 53 54 23 53 65 67 67 74 76 76 77 82 83 90
20 14 15 10 7 7 22 12 21 32 46 40 36 33 24 40 42 47 39 24 18 19 25 47 44 45 52 34 45 47 53 45 44 47 50 59 49 73 67 59 63 74 76 83 84 85 95 83 81
13 18 22 18 3 11 24 41 50 49 21 42 45 42 46 53 35 42 44 35 25 15 14 9 39 36 42 52 48 36 33 34 51 54 55 34 52 82 88 55 63 70 70 86 99 98 95 82 68
19 7 16 21 24 23 7 35 53 57 35 42 41 47 47 46 54 46 47 53 39 24 11 11 15 32 40 37 35 40 47 47 45 41 30 40 73 85 65 58 58 78 82 86 91 100 98 82 71
14 16 17 23 24 24 25 9 21 29 30 33 39 44 46 46 46 51 49 48 50 51 12 2 9 12 24 36 43 38 44 50 53 46 50 63 56 53 45 45 52 60 65 74 72 75 85 77 56
25 11 22 21 27 24 23 19 16 45 21 28 37 37 41 46 47 49 49 47 51 49 50 47 22 20 25 10 29 31 42 44 35 39 37 26 37 41 40 42 47 56 60 62 64 73 74 67 65
16 21 31 30 22 10 8 16 14 15 17 23 32 34 36 41 47 46 49 57 48 48 51 47 46 37 22 8 14 20 25 28 27 31 25 26 27 25 29 33 45 45 53 56 56 73 69 56 62
12 19 19 12 7 8 30 16 18 18 21 25 27 33 35 37 42 47 49 50 54 47 38 39 26 29 20 11 6 5 8 11 13 28 30 38 35 35 39 40 36 35 38 35 50 45 39 25 8
18 13 13 24 20 18 30 22 21 29 29 32 33 35 36 39 41 42 45 48 49 52 48 39 37 33 33 23 24 25 24 24 16 29 33 22 35 36 34 27 23 21 25 31 34 32 10 15 10
19 17 22 19 28 19 10 11 9 23 21 25 28 33 35 36 37 39 39 41 46 49 56 51 36 28 24 30 31 36 40 39 37 25 26 31 34 35 32 23 12 6 4 7 12 4 1 2 2
5 13 16 9 14 25 29 17 10 17 17 21 28 30 28 31 33 34 37 42 41 42 45 47 49 48 43 35 36 39 38 35 23 29 31 34 32 26 17 13 14 12 11 6 7 8 5 8 8
23 21 18 14 14 19 18 13 16 14 17 18 25 22 23 30 31 31 32 35 38 40 42 46 46 48 52 50 42 34 34 27 32 33 39 31 22 14 10 9 8 8 5 6 4 3 6 11 15
17 10 18 8 22 20 20 20 21 17 21 16 22 26 26 24 22 29 33 35 36 40 44 45 48 50 52 60 49 44 35 34 41 36 26 24 21 13 12 14 16 15 15 17 18 16 11 12 16
Wind_Direction_850mb
312 316 327 290 223 98 16 295 314 74 121 318 26 55 28 51 40 65 142 139 183 184 172 167 164 162 163 164 166 167 167 169 164 159 156 156 158 161 167 169 174 180 187 197 205 208 213 215 212
307 302 286 267 261 237 170 233 267 49 45 327 13 71 45 64 46 106 137 143 183 185 175 169 166 165 164 165 169 172 175 176 175 174 173 175 176 177 184 190 191 196 200 207 214 220 221 224 221
296 299 281 252 262 241 254 225 6 103 112 283 83 98 37 318 48 94 123 137 157 159 169 168 165 167 167 169 171 177 180 182 184 189 193 191 191 192 194 198 203 206 210 215 220 224 227 226 227
291 296 237 261 201 219 237 37 317 25 67 59 35 82 127 289 68 123 134 143 133 138 158 162 166 169 171 171 172 178 182 186 191 196 200 202 202 203 203 208 216 219 223 225 225 227 229 230 233
263 270 267 257 263 244 24 47 330 341 67 76 78 55 353 21 94 109 127 145 141 145 176 171 169 171 172 172 173 179 185 190 197 204 208 211 210 213 217 224 228 229 231 232 231 232 233 235 239
269 247 276 283 43 299 75 55 311 358 110 65 87 79 55 294 57 109 127 142 148 151 180 184 175 175 176 177 179 184 189 196 204 211 217 221 221 225 230 238 242 240 241 239 236 235 236 241 247
258 266 256 278 126 279 91 46 17 351 346 141 141 139 216 244 146 127 131 132 145 159 182 191 184 181 183 184 188 191 196 203 210 218 225 228 229 234 238 246 251 250 246 242 239 240 242 247 253
253 282 288 285 284 36 66 287 335 21 331 320 192 123 200 145 137 137 129 135 151 157 171 195 190 188 190 193 196 199 204 210 216 222 228 231 236 237 242 246 253 257 251 248 245 246 248 252 258
270 269 268 264 272 260 88 34 347 345 312 324 286 100 114 141 141 143 129 142 154 164 173 178 182 194 197 203 204 208 213 217 221 224 229 231 236 241 245 248 252 253 256 252 251 251 253 256 258
226 245 254 283 353 343 2 11 329 322 325 310 78 95 125 144 149 159 164 163 166 176 181 183 176 194 192 199 219 216 226 228 228 230 233 235 239 245 257 273 266 269 272 264 256 254 255 256 258
248 250 298 328 358 330 313 311 280 340 306 332 354 122 157 152 157 230 198 156 158 178 186 189 182 195 192 197 223 235 254 240 235 235 239 244 243 242 233 251 261 268 280 274 265 260 257 260 264
270 267 294 302 305 278 268 269 304 302 291 309 296 297 218 164 176 254 267 116 141 173 188 191 190 194 201 196 217 236 243 254 259 262 254 239 253 234 249 250 259 275 276 289 289 279 265 256 250
242 276 316 289 267 265 269 283 288 272 290 286 323 300 287 265 177 216 297 143 156 174 188 194 199 199 203 200 204 205 216 230 238 243 255 265 246 241 239 251 251 260 278 269 280 275 271 258 247
317 312 295 276 285 267 251 267 260 276 337 316 313 332 316 303 197 204 181 208 173 182 190 195 199 209 205 211 202 207 218 222 224 227 240 257 269 262 257 259 259 259 250 250 256 244 239 246 253
285 280 271 226 227 291 325 257 239 249 332 332 296 353 2 300 297 150 195 200 190 193 196 192 198 216 213 216 212 204 204 221 218 230 227 243 251 262 260 244 242 247 253 249 252 252 251 253 259
251 253 255 134 270 148 268 330 107 38 343 332 356 302 69 212 260 195 176 195 207 199 202 202 201 218 226 216 226 218 213 209 226 220 226 237 244 255 262 259 253 242 239 247 245 246 245 248 257
234 266 111 137 120 308 275 316 54 49 339 281 288 340 356 4 204 228 121 222 215 213 209 210 207 210 229 229 222 230 219 226 216 217 218 221 217 224 236 260 266 251 249 252 253 252 254 257 260
346 360 110 280 104 26 302 308 30 33 32 42 33 17 5 2 33 47 144 284 245 227 220 223 211 208 223 235 238 223 237 225 229 223 218 222 216 290 282 252 253 256 254 254 258 259 267 270 264
315 322 284 266 16 325 289 314 53 37 65 50 45 32 24 52 36 20 2 324 261 244 241 225 219 218 212 218 234 239 231 238 242 236 237 235 240 296 302 252 248 254 256 259 261 261 268 283 268
282 275 13 315 131 251 281 31 24 78 318 62 54 63 33 37 75 49 24 28 26 320 269 243 223 221 227 230 224 235 248 247 236 235 238 245 259 290 289 270 244 253 264 264 267 270 272 265 256
242 8 353 305 299 257 216 44 357 308 76 68 51 69 64 44 36 43 38 28 38 39 24 286 259 247 247 245 244 238 248 248 246 260 265 281 264 276 265 266 259 260 270 271 272 270 271 261 248
22 15 309 303 291 284 192 127 194 284 83 74 55 42 58 59 40 34 38 34 28 30 33 238 245 255 270 261 245 233 246 248 251 256 279 282 260 283 287 288 275 276 271 274 277 276 266 252 240
308 355 298 285 278 294 147 112 312 328 85 73 63 45 42 52 48 31 32 35 36 31 20 26 9 265 240 265 254 250 255 250 310 320 288 298 310 292 284 274 275 276 276 279 277 272 263 256 235
301 283 274 264 254 239 132 140 213 223 67 76 71 53 40 44 47 34 25 36 32 27 33 30 20 24 27 330 325 306 277 283 299 296 306 288 278 305 285 273 287 278 280 283 276 283 254 238 242
239 318 318 250 327 89 243 305 122 121 81 79 65 55 48 43 43 37 30 24 22 21 18 31 52 45 49 64 22 345 304 279 328 306 284 285 294 278 274 284 282 276 279 274 267 248 233 259 2
313 318 11 332 335 336 218 20 105 83 65 70 56 51 38 43 41 42 32 30 24 20 20 24 41 49 39 10 3 343 333 324 313 298 313 321 306 315 308 303 286 279 266 276 264 277 247 281 260
357 14 336 310 292 269 101 28 263 96 58 40 55 47 33 42 39 34 40 32 28 27 24 25 18 18 2 351 351 346 339 329 335 335 332 327 330 333 328 325 338 17 73 123 144 308 8 52 304
349 311 343 329 330 336 330 121 197 46 29 23 37 33 31 28 34 34 35 33 27 23 19 25 22 19 11 1 355 355 344 341 326 324 331 339 345 348 4 43 40 63 77 64 99 91 28 4 328
345 339 357 349 313 317 337 21 93 71 64 11 16 18 35 22 20 28 28 28 22 17 17 16 13 4 9 4 359 355 345 330 319 333 333 342 346 2 14 28 44 63 59 71 72 51 339 335 323
323 9 37 357 330 336 317 306 71 66 70 43 18 19 17 7 20 13 15 13 10 9 8 5 0 4 358 1 356 350 337 334 325 323 322 337 343 357 27 48 48 45 25 15 22 17 344 306 301